Location: Allaines
(49.9632°N, 2.9458°E)
Time: 11:04:37
(UTC+00:00)

Cosmos 1455 - Pass Details

Date: 09 April 2020
Orbit: 498 x 523 km, 82.5° (Epoch: 26 May)

Event Time Altitude Azimuth Distance (km) Brightness Sun altitude
Exits shadow 21:31:09 58° 308° (NW) 609 2.7 -24.7°
Drops below altitude 10° 21:34:40 10° 4° (N) 1,763 5.5 -25.0°
Sets 21:36:51 0° 8° (N) 2,660 6.5 -25.2°
